sat.trackr.live / text

‹ back to catalog

STARLINK-3174

NORAD 51468 · 2022-010N

PAYLOAD ACTIVE UNKNOWN

§ Identity

Operator
Country
US
Launch date
2022-02-03
Launch site
AFETR
Launch vehicle
Mass (kg)
RCS (m²)

Purposes: comms

External: N2YO · Heavens-Above · Gunter

§ Orbital elements

Epoch: 2026-05-25T02:51:15.228864Z

Period
95.44 min
Inclination
53.2132°
Eccentricity
0.0001393
Mean motion
15.08832784 rev/d
Perigee alt
538.8 km
Apogee alt
540.7 km
Semi-major
6,917.9 km
B*
1.7843e-5
RAAN
295.9768°
Arg perigee
92.9760°
Mean anomaly
267.1392°
Rev number
23,805

§ Raw data

STARLINK-31741 51468U 22010N   26145.11892626 -.00000004  00000+0  17843-4 0  99932 51468  53.2132 295.9768 0001393  92.9760 267.1392 15.08832784238051

JSON: /api/v1/satellites/51468 · /tle

For live sub-satellite position, see the globe view (requires WebGL).

§ Visibility from observer

Set your observer location to see the next 7 days of passes ≥ 10°. The values pass through the URL so the page stays shareable.

No JS? Fill the form by hand. The geolocation button needs JavaScript.